User: anonymous   Login
Location: L�Ave Maria
(50.7161°N, 1.5911°E)
Time: 13:25:38
(UTC+00:00)
Language:

Genesis I - Orbit

View from above orbital plane
View from above orbital plane
View from above satellite
View from above satellite

Ground track
Ground track

The orbit data is extracted from the following two-line orbital elements,

1 29252U 06029A   20262.68482422  .00000023  00000-0  11060-4 0  9992
2 29252  64.5223 356.6340 0009092  25.9655 334.1923 15.18208881782333
Epoch (UTC): 18 September 2020 16:26:08
Eccentricity: 0.0009092
inclination: 64.5223°
perigee height: 505 km
apogee height: 517 km
right ascension of ascending node: 356.6340°
argument of perigee: 25.9655°
revolutions per day: 15.18208881
mean anomaly at epoch: 334.1923°
orbit number at epoch: 78233

The dashed part of the orbit path shows where the satellite is in the earth's shadow,  

DLR